Location: Rowland
(34.5359°N, 79.2929°W)
Time: 13:42:05
(UTC+00:00)

Transit 4A - Pass Details

Date: 05 October 2022
Orbit: 871 x 972 km, 66.8° (Epoch: 29 November)

Event Time Altitude Azimuth Distance (km) Brightness Sun altitude
Rises 03:43:08 0° 242° (WSW) 3,608 - -54.6°
Reaches altitude 10° 03:46:15 10° 257° (WSW) 2,650 - -55.0°
Maximum altitude 03:51:02 23° 308° (NW) 1,857 - -55.5°
Drops below altitude 10° 03:55:45 10° 359° (N) 2,603 - -56.1°
Sets 03:58:48 0° 14° (NNE) 3,529 - -56.4°
